LOT263 LWSK-EPWA

Flight info

Callsign LOT263
Flight time 1h 57m
Altitude 34000
Route RAXAD DCT VAGEN DCT PARAK DCT PITOK DCT ORTEB DCT KONZI DCT LOGDA
Aircraft B738/M-SDE2E3FGHIRWXY/LB1

Departure

Time 2026-04-18 06:01
Airport Skopje International Airport (LWSK)

Arrival

Time 2026-04-18 07:58
Airport Warsaw Chopin Airport (EPWA)
Time Latitude Longitude Altitude Speed Heading
2026-04-18 05:43 41.96032 21.62603 792 ft 0 kts 76°
2026-04-18 05:53 41.96028 21.62577 807 ft 4 kts 91°
2026-04-18 05:53 41.96034 21.62545 807 ft 4 kts 133°
2026-04-18 05:53 41.96052 21.62530 807 ft 1 kts 166°
2026-04-18 05:56 41.96051 21.62530 807 ft 1 kts 166°
2026-04-18 05:56 41.96031 21.62535 801 ft 5 kts 180°
2026-04-18 05:56 41.96012 21.62501 801 ft 6 kts 264°
2026-04-18 05:57 41.96116 21.62429 790 ft 14 kts 345°
2026-04-18 05:57 41.96229 21.62388 791 ft 19 kts 343°
2026-04-18 05:57 41.96350 21.62344 791 ft 18 kts 346°
2026-04-18 05:58 41.96470 21.62302 792 ft 17 kts 345°
2026-04-18 05:58 41.96584 21.62260 792 ft 17 kts 345°
2026-04-18 05:58 41.96695 21.62220 792 ft 16 kts 346°
2026-04-18 05:58 41.96766 21.62195 792 ft 16 kts 346°
2026-04-18 05:59 41.96895 21.62125 792 ft 15 kts 314°
2026-04-18 05:59 41.96955 21.62016 790 ft 14 kts 308°
2026-04-18 05:59 41.97005 21.61906 789 ft 11 kts 279°
2026-04-18 05:59 41.96991 21.61863 789 ft 7 kts 222°
2026-04-18 06:00 41.96947 21.61870 789 ft 7 kts 164°
2026-04-18 06:00 41.96939 21.61873 789 ft 0 kts 165°
2026-04-18 06:00 41.96882 21.61893 789 ft 32 kts 165°
2026-04-18 06:00 41.96420 21.62055 789 ft 103 kts 166°
2026-04-18 06:01 41.95533 21.62367 785 ft 161 kts 162°
2026-04-18 06:01 41.94391 21.62763 1269 ft 175 kts 165°
2026-04-18 06:01 41.93141 21.63174 1746 ft 199 kts 166°
2026-04-18 06:01 41.91735 21.63655 2244 ft 212 kts 166°
2026-04-18 06:02 41.90266 21.64191 2814 ft 222 kts 161°
2026-04-18 06:02 41.89001 21.65357 3369 ft 223 kts 119°
2026-04-18 06:02 41.88608 21.67257 3965 ft 214 kts 77°
2026-04-18 06:02 41.89209 21.68983 4597 ft 203 kts 44°
2026-04-18 06:03 41.90165 21.70390 5188 ft 208 kts 44°
2026-04-18 06:03 41.91147 21.71863 5786 ft 212 kts 45°
2026-04-18 06:03 41.92151 21.73349 6380 ft 216 kts 44°
2026-04-18 06:03 41.93173 21.74850 6945 ft 220 kts 44°
2026-04-18 06:04 41.94219 21.76373 7510 ft 223 kts 44°
2026-04-18 06:04 41.95282 21.77917 8088 ft 226 kts 44°
2026-04-18 06:04 41.96373 21.79494 8632 ft 235 kts 44°
2026-04-18 06:04 41.97488 21.81101 9264 ft 241 kts 44°
2026-04-18 06:05 41.98649 21.82772 9883 ft 248 kts 44°
2026-04-18 06:05 41.99842 21.84485 10460 ft 255 kts 44°
2026-04-18 06:05 42.01078 21.86260 11042 ft 263 kts 44°
2026-04-18 06:05 42.02347 21.88087 11600 ft 272 kts 44°
2026-04-18 06:06 42.03664 21.89979 12144 ft 281 kts 44°
2026-04-18 06:06 42.05035 21.91916 12719 ft 290 kts 43°
2026-04-18 06:06 42.06463 21.93853 13267 ft 297 kts 42°
2026-04-18 06:06 42.07950 21.95855 13844 ft 305 kts 42°
2026-04-18 06:07 42.09456 21.97875 14345 ft 313 kts 42°
2026-04-18 06:07 42.11043 21.99997 14872 ft 320 kts 42°
2026-04-18 06:07 42.12640 22.02132 15398 ft 327 kts 42°
2026-04-18 06:07 42.14252 22.04287 15929 ft 334 kts 42°
2026-04-18 06:08 42.15919 22.06516 16476 ft 340 kts 42°
2026-04-18 06:08 42.17617 22.08790 17031 ft 345 kts 42°
2026-04-18 06:08 42.19363 22.11049 17595 ft 349 kts 39°
2026-04-18 06:08 42.21211 22.13208 18167 ft 353 kts 38°
2026-04-18 06:09 42.23097 22.15355 18689 ft 357 kts 37°
2026-04-18 06:09 42.24995 22.17503 19184 ft 360 kts 37°
2026-04-18 06:09 42.26924 22.19685 19716 ft 363 kts 37°
2026-04-18 06:09 42.28871 22.21888 20242 ft 366 kts 37°
2026-04-18 06:10 42.30836 22.24111 20768 ft 369 kts 37°
2026-04-18 06:10 42.32806 22.26344 21306 ft 371 kts 37°
2026-04-18 06:10 42.34791 22.28595 21864 ft 372 kts 37°
2026-04-18 06:10 42.36753 22.30825 22412 ft 373 kts 37°
2026-04-18 06:11 42.38740 22.33088 23001 ft 374 kts 37°
2026-04-18 06:11 42.40739 22.35366 23573 ft 375 kts 37°
2026-04-18 06:11 42.42733 22.37645 24071 ft 375 kts 37°
2026-04-18 06:11 42.44722 22.39921 24567 ft 375 kts 37°
2026-04-18 06:12 42.46714 22.42205 25075 ft 374 kts 37°
2026-04-18 06:12 42.48699 22.44483 25582 ft 373 kts 37°
2026-04-18 06:12 42.50641 22.46718 26108 ft 371 kts 37°
2026-04-18 06:12 42.52620 22.48997 26638 ft 370 kts 37°
2026-04-18 06:13 42.54581 22.51259 27178 ft 368 kts 37°
2026-04-18 06:13 42.56539 22.53471 27722 ft 364 kts 32°
2026-04-18 06:13 42.58779 22.54945 28237 ft 355 kts
2026-04-18 06:13 42.61188 22.54984 28818 ft 346 kts 345°
2026-04-18 06:14 42.63310 22.53612 29383 ft 342 kts 320°
2026-04-18 06:14 42.64771 22.51084 29984 ft 341 kts 297°
2026-04-18 06:14 42.65603 22.48089 30533 ft 337 kts 290°
2026-04-18 06:14 42.66272 22.45048 31028 ft 332 kts 289°
2026-04-18 06:15 42.66890 22.42089 31530 ft 326 kts 289°
2026-04-18 06:15 42.67494 22.39156 32036 ft 319 kts 288°
2026-04-18 06:15 42.68099 22.36213 31989 ft 331 kts 288°
2026-04-18 06:16 42.69380 22.30017 32045 ft 347 kts 288°
2026-04-18 06:16 42.70711 22.23607 32176 ft 361 kts 288°
2026-04-18 06:17 42.71494 22.16705 32313 ft 380 kts 274°
2026-04-18 06:17 42.71403 22.09353 32433 ft 395 kts 272°
2026-04-18 06:17 42.71759 22.05657 32429 ft 394 kts 294°
2026-04-18 06:18 42.73161 22.02503 32519 ft 393 kts 316°
2026-04-18 06:18 42.75368 22.00382 32590 ft 398 kts 338°
2026-04-18 06:18 42.78070 21.99494 32685 ft 404 kts 352°
2026-04-18 06:19 42.83772 21.99058 32809 ft 415 kts 354°
2026-04-18 06:19 42.89538 21.97808 32917 ft 424 kts 345°
2026-04-18 06:20 42.95233 21.95402 33026 ft 429 kts 339°
2026-04-18 06:20 43.00807 21.92475 33123 ft 428 kts 337°
2026-04-18 06:21 43.06255 21.89463 33224 ft 420 kts 337°
2026-04-18 06:21 43.11666 21.86463 33341 ft 419 kts 337°
2026-04-18 06:22 43.17081 21.83473 33453 ft 419 kts 337°
2026-04-18 06:22 43.22485 21.80494 33578 ft 419 kts 337°
2026-04-18 06:23 43.27897 21.77508 33692 ft 418 kts 338°
2026-04-18 06:23 43.33309 21.74518 33808 ft 418 kts 337°
2026-04-18 06:24 43.38676 21.71545 33910 ft 418 kts 337°
2026-04-18 06:24 43.41367 21.70052 34048 ft 417 kts 337°
2026-04-18 06:24 43.44070 21.68552 34057 ft 420 kts 337°
2026-04-18 06:25 43.49493 21.65537 34071 ft 420 kts 338°
2026-04-18 06:25 43.54911 21.62519 34064 ft 419 kts 337°
2026-04-18 06:26 43.60284 21.59520 34054 ft 418 kts 338°
2026-04-18 06:26 43.65679 21.56503 34062 ft 417 kts 338°
2026-04-18 06:27 43.71070 21.53483 34071 ft 417 kts 338°
2026-04-18 06:27 43.76425 21.50477 34060 ft 417 kts 338°
2026-04-18 06:28 43.81806 21.47450 34061 ft 417 kts 338°
2026-04-18 06:28 43.87187 21.44417 34065 ft 417 kts 338°
2026-04-18 06:29 43.92564 21.41381 34070 ft 417 kts 338°
2026-04-18 06:29 43.97942 21.38338 34077 ft 417 kts 338°
2026-04-18 06:30 44.03278 21.35313 34069 ft 416 kts 338°
2026-04-18 06:30 44.08644 21.32265 34079 ft 416 kts 338°
2026-04-18 06:31 44.14010 21.29212 34085 ft 416 kts 338°
2026-04-18 06:31 44.19338 21.26173 34069 ft 416 kts 338°
2026-04-18 06:32 44.24700 21.23110 34071 ft 416 kts 338°
2026-04-18 06:32 44.30065 21.20038 34082 ft 416 kts 338°
2026-04-18 06:33 44.35429 21.16961 34088 ft 416 kts 338°
2026-04-18 06:33 44.40770 21.13891 34089 ft 417 kts 338°
2026-04-18 06:34 44.46143 21.10797 34095 ft 417 kts 338°
2026-04-18 06:34 44.51506 21.07702 34088 ft 417 kts 338°
2026-04-18 06:35 44.56881 21.04594 34090 ft 417 kts 338°
2026-04-18 06:35 44.62231 21.01495 34077 ft 417 kts 338°
2026-04-18 06:36 44.67610 20.98372 34092 ft 417 kts 338°
2026-04-18 06:36 44.72973 20.95252 34084 ft 417 kts 338°
2026-04-18 06:37 44.78307 20.92143 34096 ft 416 kts 338°
2026-04-18 06:37 44.83660 20.89017 34096 ft 416 kts 338°
2026-04-18 06:38 44.88970 20.85910 34096 ft 415 kts 338°
2026-04-18 06:38 44.94316 20.82774 34106 ft 415 kts 338°
2026-04-18 06:39 44.99645 20.79643 34109 ft 414 kts 338°
2026-04-18 06:39 45.04943 20.76524 34116 ft 414 kts 338°
2026-04-18 06:40 45.10230 20.73405 34117 ft 413 kts 338°
2026-04-18 06:40 45.15539 20.70267 34116 ft 413 kts 338°
2026-04-18 06:41 45.20853 20.67118 34117 ft 413 kts 338°
2026-04-18 06:41 45.26170 20.63963 34118 ft 414 kts 338°
2026-04-18 06:42 45.31453 20.60821 34121 ft 414 kts 338°
2026-04-18 06:42 45.36777 20.57648 34123 ft 415 kts 338°
2026-04-18 06:43 45.42107 20.54465 34126 ft 415 kts 339°
2026-04-18 06:43 45.47437 20.51275 34130 ft 415 kts 339°
2026-04-18 06:44 45.52749 20.48090 34125 ft 416 kts 339°
2026-04-18 06:44 45.58088 20.44882 34133 ft 416 kts 339°
2026-04-18 06:45 45.62520 20.42214 34132 ft 415 kts 339°
2026-04-18 06:45 45.68712 20.38478 34141 ft 415 kts 339°
2026-04-18 06:46 45.73147 20.35796 34128 ft 415 kts 339°
2026-04-18 06:46 45.79325 20.32054 34131 ft 414 kts 339°
2026-04-18 06:47 45.83737 20.29375 34143 ft 413 kts 339°
2026-04-18 06:47 45.89021 20.26161 34133 ft 412 kts 339°
2026-04-18 06:48 45.94307 20.22940 34138 ft 411 kts 339°
2026-04-18 06:48 45.99564 20.19729 34144 ft 410 kts 339°
2026-04-18 06:49 46.04812 20.16517 34145 ft 409 kts 339°
2026-04-18 06:49 46.10017 20.13325 34141 ft 408 kts 339°
2026-04-18 06:50 46.15348 20.10533 34147 ft 405 kts 349°
2026-04-18 06:50 46.20954 20.09860 34144 ft 404 kts
2026-04-18 06:51 46.26518 20.10603 34150 ft 404 kts
2026-04-18 06:51 46.32133 20.11333 34150 ft 405 kts
2026-04-18 06:52 46.37769 20.12044 34160 ft 406 kts
2026-04-18 06:52 46.43402 20.12748 34154 ft 406 kts
2026-04-18 06:53 46.49021 20.13449 34155 ft 407 kts
2026-04-18 06:53 46.54635 20.14151 34155 ft 407 kts
2026-04-18 06:54 46.60291 20.14860 34149 ft 407 kts
2026-04-18 06:54 46.65942 20.15570 34154 ft 407 kts
2026-04-18 06:55 46.71565 20.16278 34153 ft 407 kts
2026-04-18 06:55 46.77220 20.16992 34156 ft 407 kts
2026-04-18 06:56 46.82872 20.17707 34155 ft 407 kts
2026-04-18 06:56 46.88471 20.18417 34152 ft 406 kts
2026-04-18 06:57 46.94113 20.19133 34155 ft 406 kts
2026-04-18 06:57 47.02565 20.20209 34159 ft 406 kts
2026-04-18 06:58 47.08207 20.20930 34157 ft 406 kts
2026-04-18 06:58 47.13815 20.21647 34164 ft 406 kts
2026-04-18 06:59 47.19457 20.22370 34157 ft 406 kts
2026-04-18 06:59 47.25091 20.23094 34154 ft 406 kts
2026-04-18 07:00 47.30701 20.23817 34147 ft 406 kts
2026-04-18 07:00 47.36337 20.24544 34155 ft 406 kts
2026-04-18 07:01 47.41961 20.25271 34158 ft 406 kts
2026-04-18 07:01 47.47591 20.26001 34148 ft 406 kts
2026-04-18 07:02 47.53191 20.26728 34149 ft 406 kts
2026-04-18 07:02 47.58825 20.27461 34151 ft 406 kts
2026-04-18 07:03 47.64460 20.28196 34152 ft 407 kts
2026-04-18 07:03 47.70115 20.28936 34150 ft 407 kts
2026-04-18 07:04 47.75771 20.29677 34149 ft 408 kts
2026-04-18 07:04 47.81424 20.30419 34147 ft 408 kts
2026-04-18 07:05 47.87060 20.31160 34150 ft 409 kts
2026-04-18 07:05 47.92745 20.31910 34153 ft 410 kts
2026-04-18 07:06 47.98416 20.32660 34149 ft 410 kts
2026-04-18 07:06 48.04145 20.33418 34149 ft 411 kts
2026-04-18 07:07 48.09814 20.34171 34152 ft 411 kts
2026-04-18 07:07 48.15516 20.34930 34155 ft 411 kts
2026-04-18 07:08 48.21227 20.35691 34151 ft 411 kts
2026-04-18 07:08 48.26915 20.36451 34157 ft 411 kts
2026-04-18 07:09 48.32590 20.37211 34153 ft 411 kts
2026-04-18 07:09 48.38287 20.37867 34156 ft 410 kts
2026-04-18 07:10 48.43984 20.38460 34154 ft 410 kts
2026-04-18 07:10 48.49675 20.39058 34154 ft 410 kts
2026-04-18 07:11 48.55367 20.39668 34146 ft 409 kts
2026-04-18 07:11 48.61012 20.40281 34150 ft 409 kts
2026-04-18 07:12 48.66697 20.40899 34163 ft 408 kts
2026-04-18 07:12 48.72371 20.41518 34160 ft 407 kts
2026-04-18 07:13 48.77995 20.42133 34165 ft 407 kts
2026-04-18 07:13 48.83421 20.42728 34170 ft 405 kts
2026-04-18 07:14 48.89059 20.43348 34171 ft 405 kts
2026-04-18 07:14 48.94670 20.43965 34177 ft 404 kts
2026-04-18 07:15 49.00253 20.44580 34180 ft 403 kts
2026-04-18 07:15 49.05850 20.45199 34179 ft 402 kts
2026-04-18 07:16 49.11281 20.45802 34167 ft 375 kts
2026-04-18 07:16 49.13846 20.46087 34153 ft 361 kts
2026-04-18 07:16 49.16270 20.46357 34159 ft 346 kts
2026-04-18 07:17 49.18627 20.46619 34163 ft 332 kts
2026-04-18 07:17 49.20885 20.46870 34157 ft 319 kts
2026-04-18 07:17 49.23048 20.47111 34169 ft 305 kts
2026-04-18 07:17 49.25129 20.47343 34147 ft 292 kts
2026-04-18 07:18 49.27113 20.47565 34163 ft 278 kts
2026-04-18 07:18 49.29010 20.47777 34138 ft 273 kts
2026-04-18 07:18 49.30938 20.47992 33982 ft 283 kts
2026-04-18 07:18 49.32966 20.48218 33716 ft 300 kts
2026-04-18 07:19 49.35108 20.48456 33501 ft 316 kts
2026-04-18 07:19 49.37324 20.48704 33603 ft 321 kts
2026-04-18 07:19 49.39566 20.48956 33794 ft 325 kts
2026-04-18 07:19 49.41816 20.49208 33980 ft 329 kts
2026-04-18 07:20 49.44113 20.49467 34149 ft 332 kts
2026-04-18 07:20 49.46447 20.49729 34177 ft 339 kts
2026-04-18 07:20 49.51241 20.50269 34184 ft 352 kts
2026-04-18 07:21 49.56179 20.50827 34193 ft 364 kts
2026-04-18 07:21 49.61330 20.51409 34194 ft 377 kts
2026-04-18 07:22 49.66642 20.52011 34197 ft 388 kts
2026-04-18 07:22 49.72073 20.52628 34195 ft 398 kts
2026-04-18 07:23 49.77675 20.53266 34192 ft 407 kts
2026-04-18 07:23 49.83396 20.53919 34192 ft 415 kts
2026-04-18 07:24 49.89170 20.54580 34191 ft 419 kts
2026-04-18 07:24 49.95002 20.55249 34192 ft 420 kts
2026-04-18 07:25 50.00841 20.55920 34194 ft 420 kts
2026-04-18 07:25 50.06654 20.56590 34182 ft 415 kts
2026-04-18 07:26 50.12367 20.57239 34195 ft 412 kts
2026-04-18 07:26 50.18086 20.57824 34199 ft 411 kts
2026-04-18 07:27 50.23764 20.58397 34198 ft 411 kts
2026-04-18 07:27 50.29477 20.58982 34206 ft 411 kts
2026-04-18 07:28 50.35191 20.59572 34200 ft 411 kts
2026-04-18 07:28 50.40902 20.60165 34189 ft 411 kts
2026-04-18 07:29 50.43713 20.60457 33834 ft 406 kts
2026-04-18 07:29 50.46503 20.60747 33444 ft 396 kts
2026-04-18 07:29 50.49237 20.61032 33010 ft 389 kts
2026-04-18 07:29 50.51925 20.61312 32578 ft 384 kts
2026-04-18 07:30 50.54589 20.61590 32135 ft 384 kts
2026-04-18 07:30 50.57214 20.61864 31692 ft 383 kts
2026-04-18 07:30 50.59882 20.62142 31242 ft 384 kts
2026-04-18 07:30 50.62525 20.62418 30796 ft 384 kts
2026-04-18 07:31 50.65205 20.62698 30355 ft 385 kts
2026-04-18 07:31 50.67879 20.62978 29855 ft 385 kts
2026-04-18 07:31 50.70564 20.63259 29344 ft 385 kts
2026-04-18 07:31 50.73196 20.63535 28789 ft 382 kts
2026-04-18 07:32 50.75842 20.63813 28259 ft 380 kts
2026-04-18 07:32 50.78482 20.64091 27713 ft 379 kts
2026-04-18 07:32 50.81111 20.64368 27181 ft 376 kts
2026-04-18 07:32 50.83691 20.64640 26666 ft 374 kts
2026-04-18 07:33 50.86290 20.64914 26162 ft 373 kts
2026-04-18 07:33 50.88874 20.65187 25659 ft 371 kts
2026-04-18 07:33 50.91444 20.65458 25167 ft 369 kts
2026-04-18 07:33 50.94000 20.65729 24683 ft 368 kts
2026-04-18 07:34 50.96555 20.66000 24211 ft 366 kts
2026-04-18 07:34 50.99095 20.66270 23735 ft 365 kts
2026-04-18 07:34 51.00774 20.66448 23368 ft 365 kts
2026-04-18 07:34 51.03306 20.66716 22825 ft 363 kts
2026-04-18 07:35 51.05826 20.66984 22286 ft 362 kts
2026-04-18 07:35 51.09146 20.67338 21651 ft 359 kts
2026-04-18 07:35 51.11627 20.67603 21186 ft 356 kts
2026-04-18 07:35 51.14093 20.67866 20721 ft 354 kts
2026-04-18 07:36 51.15728 20.68041 20414 ft 352 kts
2026-04-18 07:36 51.18165 20.68302 19973 ft 350 kts
2026-04-18 07:36 51.20589 20.68561 19533 ft 348 kts
2026-04-18 07:36 51.22917 20.68811 19116 ft 346 kts
2026-04-18 07:37 51.25311 20.69068 18692 ft 345 kts
2026-04-18 07:37 51.27701 20.69328 18237 ft 343 kts
2026-04-18 07:37 51.30034 20.70057 17779 ft 341 kts 17°
2026-04-18 07:37 51.32252 20.71319 17424 ft 336 kts 19°
2026-04-18 07:38 51.34446 20.72558 17048 ft 332 kts 18°
2026-04-18 07:38 51.36591 20.73736 16686 ft 329 kts 18°
2026-04-18 07:38 51.38744 20.74902 16322 ft 325 kts 18°
2026-04-18 07:38 51.40882 20.76049 15966 ft 322 kts 18°
2026-04-18 07:39 51.42999 20.77182 15609 ft 319 kts 18°
2026-04-18 07:39 51.45093 20.78303 15260 ft 316 kts 18°
2026-04-18 07:39 51.47167 20.79414 14913 ft 313 kts 18°
2026-04-18 07:39 51.49227 20.80519 14569 ft 311 kts 18°
2026-04-18 07:40 51.51266 20.81615 14271 ft 307 kts 18°
2026-04-18 07:40 51.53283 20.82703 13976 ft 303 kts 18°
2026-04-18 07:40 51.55274 20.83779 13660 ft 300 kts 18°
2026-04-18 07:40 51.57245 20.84846 13328 ft 297 kts 18°
2026-04-18 07:41 51.59167 20.85886 13011 ft 294 kts 18°
2026-04-18 07:41 51.61110 20.86935 12700 ft 291 kts 18°
2026-04-18 07:41 51.63024 20.87970 12447 ft 287 kts 18°
2026-04-18 07:41 51.64905 20.88989 12183 ft 283 kts 18°
2026-04-18 07:42 51.66761 20.89996 11919 ft 280 kts 18°
2026-04-18 07:42 51.68590 20.90989 11672 ft 276 kts 18°
2026-04-18 07:42 51.70412 20.91951 11412 ft 273 kts 17°
2026-04-18 07:42 51.72208 20.92888 11160 ft 270 kts 17°
2026-04-18 07:43 51.73967 20.93805 10914 ft 267 kts 17°
2026-04-18 07:43 51.75746 20.94736 10659 ft 264 kts 17°
2026-04-18 07:43 51.77035 20.95233 10459 ft 262 kts
2026-04-18 07:43 51.78867 20.94752 10233 ft 259 kts 343°
2026-04-18 07:44 51.80526 20.93579 9979 ft 259 kts 335°
2026-04-18 07:44 51.82114 20.92215 9709 ft 257 kts 334°
2026-04-18 07:44 51.83690 20.90855 9436 ft 255 kts 334°
2026-04-18 07:44 51.85257 20.89529 9189 ft 253 kts 335°
2026-04-18 07:45 51.86809 20.88227 8968 ft 250 kts 335°
2026-04-18 07:45 51.88354 20.86936 8720 ft 248 kts 335°
2026-04-18 07:45 51.89886 20.85659 8490 ft 246 kts 335°
2026-04-18 07:45 51.91385 20.84408 8258 ft 244 kts 334°
2026-04-18 07:46 51.92886 20.83161 8047 ft 241 kts 334°
2026-04-18 07:46 51.94376 20.81919 7845 ft 238 kts 334°
2026-04-18 07:46 51.95810 20.80732 7636 ft 235 kts 336°
2026-04-18 07:46 51.97365 20.80149 7429 ft 229 kts
2026-04-18 07:47 51.98844 20.80948 7279 ft 226 kts 31°
2026-04-18 07:47 52.00002 20.82668 7111 ft 227 kts 52°
2026-04-18 07:47 52.00790 20.84859 6950 ft 228 kts 59°
2026-04-18 07:47 52.01513 20.87152 6785 ft 228 kts 60°
2026-04-18 07:48 52.02194 20.89481 6598 ft 230 kts 69°
2026-04-18 07:48 52.02249 20.92086 6386 ft 238 kts 103°
2026-04-18 07:48 52.01396 20.94373 6208 ft 242 kts 136°
2026-04-18 07:48 51.99999 20.95888 6041 ft 242 kts 149°
2026-04-18 07:49 51.98503 20.97175 5802 ft 245 kts 151°
2026-04-18 07:49 51.96986 20.98470 5533 ft 247 kts 150°
2026-04-18 07:49 51.95470 20.99779 5306 ft 247 kts 150°
2026-04-18 07:49 51.93951 21.01110 5033 ft 248 kts 150°
2026-04-18 07:50 51.92431 21.02432 4792 ft 249 kts 151°
2026-04-18 07:50 51.90923 21.03728 4571 ft 247 kts 151°
2026-04-18 07:50 51.89436 21.05094 4376 ft 244 kts 141°
2026-04-18 07:50 51.88458 21.07230 4191 ft 235 kts 104°
2026-04-18 07:51 51.88350 21.09786 4029 ft 225 kts 78°
2026-04-18 07:51 51.88845 21.12140 3852 ft 218 kts 61°
2026-04-18 07:51 51.89544 21.14299 3683 ft 213 kts 59°
2026-04-18 07:51 51.90331 21.16288 3644 ft 208 kts 43°
2026-04-18 07:52 51.91570 21.17341 3581 ft 201 kts
2026-04-18 07:52 51.92952 21.17173 3512 ft 200 kts 341°
2026-04-18 07:52 51.94172 21.16249 3434 ft 191 kts 333°
2026-04-18 07:52 51.95285 21.15267 3343 ft 183 kts 332°
2026-04-18 07:53 51.96411 21.14275 3277 ft 185 kts 332°
2026-04-18 07:53 51.97541 21.13325 3172 ft 179 kts 333°
2026-04-18 07:53 51.98614 21.12371 3038 ft 174 kts 332°
2026-04-18 07:53 51.99664 21.11415 3013 ft 174 kts 331°
2026-04-18 07:54 52.00745 21.10458 3011 ft 179 kts 331°
2026-04-18 07:54 52.01824 21.09521 3020 ft 171 kts 334°
2026-04-18 07:54 52.02876 21.08626 3018 ft 166 kts 334°
2026-04-18 07:54 52.03849 21.07796 3008 ft 153 kts 333°
2026-04-18 07:55 52.04829 21.06982 2809 ft 159 kts 334°
2026-04-18 07:55 52.05776 21.06167 2599 ft 153 kts 332°
2026-04-18 07:55 52.06702 21.05357 2373 ft 148 kts 335°
2026-04-18 07:55 52.07614 21.04642 2176 ft 145 kts 330°
2026-04-18 07:56 52.08483 21.03777 1987 ft 150 kts 329°
2026-04-18 07:56 52.09413 21.02982 1772 ft 151 kts 338°
2026-04-18 07:56 52.10325 21.02236 1541 ft 145 kts 330°
2026-04-18 07:56 52.11185 21.01436 1366 ft 143 kts 332°
2026-04-18 07:57 52.12042 21.00688 1171 ft 136 kts 332°
2026-04-18 07:57 52.12874 20.99954 996 ft 136 kts 331°
2026-04-18 07:57 52.13723 20.99205 818 ft 139 kts 330°
2026-04-18 07:57 52.14611 20.98421 540 ft 151 kts 329°
2026-04-18 07:58 52.16401 20.96848 337 ft 131 kts 332°
2026-04-18 07:58 52.17068 20.96305 334 ft 65 kts 335°
2026-04-18 07:58 52.17303 20.96242 336 ft 29 kts
2026-04-18 07:59 52.17330 20.96246 333 ft 0 kts
2026-04-18 08:01 52.17331 20.96246 333 ft 1 kts
2026-04-18 08:01 52.17361 20.96251 337 ft 8 kts
2026-04-18 08:01 52.17407 20.96319 336 ft 12 kts 60°
2026-04-18 08:01 52.17452 20.96453 337 ft 16 kts 60°
2026-04-18 08:02 52.17434 20.96599 336 ft 15 kts 152°
2026-04-18 08:02 52.17340 20.96680 336 ft 15 kts 151°
2026-04-18 08:02 52.17252 20.96758 336 ft 14 kts 151°
2026-04-18 08:02 52.17166 20.96835 336 ft 14 kts 151°
2026-04-18 08:03 52.17083 20.96905 336 ft 13 kts 154°
2026-04-18 08:03 52.17005 20.96974 334 ft 13 kts 151°
2026-04-18 08:03 52.16936 20.97033 338 ft 6 kts 149°
2026-04-18 08:03 52.16933 20.97094 337 ft 6 kts 68°
2026-04-18 08:04 52.16947 20.97151 337 ft 4 kts 68°
2026-04-18 08:04 52.16957 20.97188 337 ft 2 kts 67°
2026-04-18 08:04 52.16957 20.97189 338 ft 0 kts 67°